Location: *
(45.5224°N, 122.7471°W)
Time: 21:51:42
(UTC+00:00)

Cosmos 1689 Rocket - Pass Details

Date: 09 April 2020
Orbit: 369 x 383 km, 97.5° (Epoch: 02 June)

Event Time Altitude Azimuth Distance (km) Brightness Sun altitude
Rises 12:04:59 0° 156° (SSE) 2,258 5.9 -15.6°
Reaches altitude 10° 12:06:58 10° 151° (SSE) 1,408 4.9 -15.3°
Maximum altitude 12:09:53 51° 74° (ENE) 494 3.0 -14.8°
Drops below altitude 10° 12:12:49 10° 357° (N) 1,414 5.2 -14.4°
Sets 12:14:49 0° 352° (N) 2,270 6.2 -14.1°
